Fremont, NE

1:16 PM CDT on May 28, 2017 (GMT -0500)
Fremont Municipal

Weather History for KFET - February, 2012

Change the Weather History Date:

Tuesday, February 28, 2012

  Actual Average Record
Temperature  
Mean Temperature 44 °F -  
Max Temperature 53 °F 47 °F 77 °F (1972)
Min Temperature 34 °F 26 °F -17 °F (1962)
Degree Days  
Heating Degree Days 22    
Moisture  
Dew Point 35 °F    
Average Humidity 79    
Maximum Humidity 95    
Minimum Humidity 52    
Precipitation  
Precipitation 0.22 in - - ()
Sea Level Pressure  
Sea Level Pressure 29.87 in    
Wind  
Wind Speed 12 mph (SE)    
Max Wind Speed 24 mph    
Max Gust Speed 31 mph    
Visibility 8 miles    
Events Rain , Thunderstorm    
Averages and records for this station are not official NWS values.
T = Trace of Precipitation, MM = Missing Value Source: NWS Daily Summary

Daily Weather History Graph

Daily Weather History Graph

Search for Another Location

Airport or City:

Trip Planner

Search our weather history database for the weather conditions in past years. The results will help you decide how hot, cold, wet, or windy it might be!

Date:

Astronomy

Feb. 28, 2012 Rise Set
Actual Time 7:02 AM CST 6:15 PM CST
Civil Twilight 6:35 AM CST 6:42 PM CST
Nautical Twilight 6:03 AM CST 7:14 PM CST
Astronomical Twilight 5:31 AM CST 7:47 PM CST
Moon 10:06 AM CST 12:13 AM CST
Length of Visible Light 12h 07m
Length of Day
11h 12m
Waxing Crescent, 38% of the Moon is Illuminated
Feb 28
Waxing Crescent
Feb 29
First Quarter
Mar 8
Full
Mar 14
Last Quarter
Mar 22
New

Hourly Weather History & Observations

Time (CST) Temp. Windchill Dew Point Humidity Pressure Visibility Wind Dir Wind Speed Gust Speed Precip Events Conditions
12:15 AM 35.6 °F 28.0 °F 22.5 °F 59% 30.25 in 10.0 mi SE 10.4 mph - N/A   Overcast
12:35 AM 35.8 °F 28.8 °F 22.3 °F 58% 30.24 in 10.0 mi ESE 9.2 mph - N/A   Overcast
12:55 AM 36.0 °F 29.6 °F 22.8 °F 59% 30.24 in 10.0 mi SE 8.1 mph - N/A   Overcast
1:15 AM 36.5 °F 31.0 °F 22.3 °F 56% 30.23 in 10.0 mi SE 6.9 mph - N/A   Overcast
1:35 AM 36.9 °F 30.1 °F 21.9 °F 55% 30.22 in 10.0 mi SE 9.2 mph - N/A   Overcast
1:55 AM 37.4 °F 29.8 °F 21.4 °F 52% 30.21 in 10.0 mi SE 11.5 mph - N/A   Overcast
2:15 AM 37.4 °F 30.8 °F 21.7 °F 53% 30.20 in 10.0 mi SE 9.2 mph - N/A   Overcast
2:35 AM 37.0 °F 31.6 °F 22.5 °F 56% 30.19 in 10.0 mi SE 6.9 mph - N/A   Overcast
2:55 AM 36.9 °F 30.7 °F 22.5 °F 56% 30.18 in 10.0 mi ESE 8.1 mph - N/A   Overcast
3:15 AM 36.7 °F 30.5 °F 22.8 °F 57% 30.16 in 10.0 mi ESE 8.1 mph - N/A   Overcast
3:35 AM 36.5 °F 30.3 °F 23.0 °F 58% 30.15 in 10.0 mi ESE 8.1 mph - N/A   Overcast
3:55 AM 35.8 °F 28.3 °F 23.9 °F 62% 30.13 in 10.0 mi ESE 10.4 mph - N/A Rain Light Rain
4:15 AM 35.8 °F 28.8 °F 24.1 °F 62% 30.13 in 10.0 mi ESE 9.2 mph - N/A   Overcast
4:35 AM 35.8 °F 28.3 °F 23.9 °F 62% 30.11 in 10.0 mi ESE 10.4 mph - N/A   Overcast
4:55 AM 35.8 °F 28.3 °F 24.4 °F 63% 30.10 in 10.0 mi SE 10.4 mph - N/A   Overcast
5:15 AM 36.1 °F 27.7 °F 23.9 °F 61% 30.10 in 10.0 mi SE 12.7 mph 17.3 mph N/A   Overcast
5:35 AM 36.5 °F 29.2 °F 23.7 °F 60% 30.08 in 10.0 mi ESE 10.4 mph - N/A   Overcast
5:55 AM 36.5 °F 28.7 °F 23.9 °F 60% 30.07 in 10.0 mi ESE 11.5 mph - N/A   Overcast
6:15 AM 36.7 °F 30.5 °F 24.3 °F 61% 30.07 in 10.0 mi SE 8.1 mph - N/A Rain Light Rain
6:35 AM 35.6 °F 27.1 °F 26.8 °F 70% 30.06 in 10.0 mi SE 12.7 mph - N/A Rain Light Rain
6:55 AM 35.2 °F 28.1 °F 27.9 °F 74% 30.06 in 7.0 mi SE 9.2 mph - N/A Rain Light Rain
7:15 AM 34.7 °F 27.5 °F 29.1 °F 80% 30.04 in 5.0 mi ESE 9.2 mph - 0.02 in Rain Light Rain
7:35 AM 34.9 °F 27.1 °F 30.2 °F 83% 30.03 in 7.0 mi ESE 10.4 mph - 0.02 in   Overcast
7:55 AM 35.4 °F 27.3 °F 30.9 °F 84% 30.02 in 7.0 mi SE 11.5 mph - 0.03 in Rain Light Rain
8:15 AM 36.3 °F 26.4 °F 30.9 °F 81% 30.01 in 10.0 mi SE 17.3 mph 23.0 mph 0.01 in   Overcast
8:35 AM 36.1 °F 26.9 °F 31.6 °F 84% 30.00 in 10.0 mi ESE 15.0 mph 21.9 mph 0.01 in   Overcast
8:55 AM 36.1 °F 28.2 °F 32.2 °F 86% 30.00 in 10.0 mi SE 11.5 mph 20.7 mph 0.01 in   Overcast
9:15 AM 36.3 °F 28.9 °F 33.4 °F 89% 29.99 in 10.0 mi SE 10.4 mph - N/A Rain Light Rain
9:35 AM 37.0 °F 28.5 °F 34.3 °F 90% 29.97 in 10.0 mi SE 13.8 mph 19.6 mph N/A   Overcast
9:55 AM 37.6 °F 28.8 °F 34.9 °F 90% 29.96 in 10.0 mi SE 15.0 mph 19.6 mph N/A   Overcast
10:15 AM 38.5 °F 29.9 °F 35.2 °F 88% 29.93 in 10.0 mi SE 15.0 mph - N/A   Overcast
10:35 AM 38.8 °F 30.0 °F 35.4 °F 88% 29.92 in 10.0 mi SE 16.1 mph 21.9 mph N/A   Overcast
10:55 AM 39.2 °F 30.2 °F 35.8 °F 88% 29.90 in 7.0 mi SE 17.3 mph 24.2 mph N/A Rain Light Rain
11:15 AM 40.5 °F 32.8 °F 37.8 °F 90% 29.88 in 10.0 mi SE 13.8 mph 20.7 mph N/A   Overcast
11:35 AM 42.4 °F 35.0 °F 39.0 °F 88% 29.86 in 10.0 mi SE 15.0 mph 19.6 mph N/A   Overcast
12:15 PM 43.9 °F 36.2 °F 39.6 °F 85% 29.82 in 10.0 mi SE 17.3 mph 24.2 mph N/A   Overcast
12:35 PM 43.7 °F 36.3 °F 38.8 °F 83% 29.79 in 10.0 mi SE 16.1 mph 21.9 mph N/A Thunderstorm Overcast
12:55 PM 43.2 °F 35.0 °F 39.6 °F 87% 29.77 in 10.0 mi ESE 18.4 mph 23.0 mph N/A   Light Drizzle
1:35 PM 44.2 °F 37.3 °F 41.9 °F 91% 29.71 in 4.0 mi SE 15.0 mph 24.2 mph 0.02 in Rain Light Rain
1:55 PM 44.6 °F 37.4 °F 41.9 °F 90% 29.70 in 4.0 mi SE 16.1 mph - 0.08 in Rain Heavy Rain
2:15 PM 45.7 °F 38.0 °F 43.0 °F 90% 29.67 in 10.0 mi SE 19.6 mph 25.3 mph N/A Thunderstorm Overcast
2:35 PM 45.9 °F 38.8 °F 42.8 °F 89% 29.66 in 10.0 mi SE 17.3 mph 25.3 mph N/A   Overcast
2:55 PM 46.4 °F 39.5 °F 42.8 °F 87% 29.65 in 10.0 mi SE 17.3 mph 25.3 mph N/A   Overcast
3:15 PM 47.3 °F - 43.2 °F 86% 29.64 in 10.0 mi SE 15.0 mph 25.3 mph N/A   Overcast
3:35 PM 47.7 °F - 43.7 °F 86% 29.62 in 10.0 mi SE 15.0 mph 21.9 mph N/A   Overcast
3:55 PM 47.8 °F - 44.1 °F 87% 29.62 in 7.0 mi SE 11.5 mph 17.3 mph N/A   Overcast
4:15 PM 47.7 °F - 44.8 °F 90% 29.60 in 1.8 mi SE 17.3 mph 21.9 mph N/A   Overcast
4:35 PM 47.5 °F - 45.5 °F 93% 29.59 in 1.8 mi SE 15.0 mph - N/A   Overcast
4:55 PM 47.7 °F - 45.9 °F 93% 29.57 in 1.8 mi ESE 13.8 mph 18.4 mph N/A Rain Light Rain
5:15 PM 48.2 °F - 46.4 °F 93% 29.56 in 2.5 mi ESE 12.7 mph 17.3 mph 0.01 in   Light Drizzle
5:35 PM 48.7 °F - 47.3 °F 95% 29.54 in 3.0 mi ESE 15.0 mph - 0.01 in   Overcast
6:15 PM 50.4 °F - 49.1 °F 95% 29.51 in 4.0 mi SE 17.3 mph 24.2 mph N/A   Overcast
6:35 PM 50.9 °F - 49.3 °F 94% 29.49 in 5.0 mi SE 20.7 mph 26.5 mph N/A   Overcast
6:55 PM 50.5 °F - 49.1 °F 95% 29.48 in 4.0 mi ESE 20.7 mph - N/A   Overcast
7:15 PM 50.2 °F - 48.7 °F 95% 29.45 in 2.5 mi ESE 19.6 mph 25.3 mph N/A   Overcast
7:35 PM 50.9 °F - 49.5 °F 95% 29.43 in 3.0 mi SE 17.3 mph 27.6 mph N/A   Overcast
7:55 PM 51.3 °F - 50.0 °F 95% 29.40 in 4.0 mi SE 19.6 mph 31.1 mph 0.04 in Rain , Thunderstorm Rain
8:15 PM 52.3 °F - 50.4 °F 93% 29.35 in 7.0 mi SE 24.2 mph 31.1 mph 0.01 in Thunderstorm Unknown
8:35 PM 53.4 °F - 50.2 °F 89% 29.33 in 10.0 mi SE 18.4 mph 28.8 mph 0.01 in Thunderstorm Overcast
9:15 PM 52.7 °F - 50.2 °F 91% 29.33 in 10.0 mi ESE 9.2 mph 18.4 mph 0.04 in Rain Light Rain
9:35 PM 53.2 °F - 50.0 °F 89% 29.36 in 2.5 mi SW 19.6 mph 27.6 mph 0.30 in Rain , Thunderstorm Heavy Thunderstorms and Rain
9:55 PM 52.7 °F - 49.5 °F 89% 29.34 in 10.0 mi South 3.5 mph - 0.37 in   Overcast
10:15 PM 51.3 °F - 48.9 °F 92% 29.32 in 10.0 mi SE 4.6 mph - N/A   Mostly Cloudy
10:35 PM 49.1 °F - 47.8 °F 95% 29.30 in 10.0 mi South 3.5 mph - N/A   Scattered Clouds
10:55 PM 49.5 °F - 44.1 °F 82% 29.30 in 10.0 mi SSW 9.2 mph - N/A   Mostly Cloudy
11:15 PM 48.7 °F - 40.3 °F 73% 29.31 in 10.0 mi SW 18.4 mph 26.5 mph 0.01 in   Scattered Clouds
11:35 PM 45.1 °F 37.9 °F 39.2 °F 80% 29.33 in 10.0 mi SW 17.3 mph 28.8 mph 0.01 in   Clear